Regional Weather Roundup
Issued by NWS

Home | Current Version | Previous Version | Graphics & Text | Print | Product List | Glossary Off
Versions: 1 2 3 4 5 6 7 8 9 10 11 12 13 14 15 16 17 18 19 20 21 22 23 24 25 26 27 28 29 30 31 32 33 34 35 36 37 38 39 40 41 42 43 44 45 46 47 48 49 50

000
ASUS43 KMKX 111100
RWRWI

WISCONSIN REGIONAL WEATHER ROUNDUP
NATIONAL WEATHER SERVICE MILWAUKEE/SULLIVAN WI
500 AM CST THU FEB 11 2016

NOTE: "FAIR" INDICATES FEW OR NO CLOUDS BELOW 12,000 FEET WITH NO
SIGNIFICANT WEATHER AND/OR OBSTRUCTIONS TO VISIBILITY.

WIZ001-002-006>008-014>016-023>028-111200-
NORTHWEST WISCONSIN

CITY           SKY/WX    TMP DP  RH WIND       PRES   REMARKS
SUPERIOR ARPT  CLOUDY    -8 -13  80 SW3       30.31S
ASHLAND        CLOUDY     0  -4  83 SW5       30.27R WCI -10
HAYWARD        CLOUDY   -19 -24  77 CALM      30.25R
SIREN          PTCLDY   -12 -17  76 CALM      30.29S
CUMBERLAND     PTCLDY   -11 -17  77 CALM      30.25R
RICE LAKE      PTCLDY    -9 -13  82 CALM      30.28R
CHETEK         PTCLDY   -12 -16  83 CALM      30.28R
LADYSMITH      CLOUDY   -14 -20  76 CALM      30.25R
EAU CLAIRE     NOT AVBL
MENOMONIE      PTCLDY    -4 -11  71 CALM      30.29R
NEW RICHMOND   CLOUDY    -9 -14  80 CALM      30.28S
OSCEOLA        CLOUDY    -6 -10  81 CALM      30.32S
$$

WIZ003>005-009-010-017-018-111200-
NORTH CENTRAL WISCONSIN

CITY           SKY/WX    TMP DP  RH WIND       PRES   REMARKS
MANITOWISH WTR FLURRIES   1  -2  86 W3        30.14R
ARBOR VITAE    CLOUDY     4  -1  81 NW5       30.14R WCI  -5
WOODRUFF       CLOUDY     4  -1  81 NW5       30.14R WCI  -5
RHINELANDER    CLOUDY    -1  -6  79 W6        30.14R WCI -13
EAGLE RIVER    CLOUDY     3  -3  78 W3        30.12R
LAND O LAKES   CLOUDY     7   1  76 N8        30.13R WCI  -6
PHILLIPS       CLOUDY   -14 -18  82 W3        30.19R
TOMAHAWK       CLOUDY    -3  -7  85 W3        30.17R
MEDFORD        CLOUDY    -9 -13  82 N3        30.18R
MERRILL        CLEAR     -6  -9  85 W6        30.19R WCI -19
$$

WIZ029-030-035-036-043>047-111200-
CENTRAL WISCONSIN

CITY           SKY/WX    TMP DP  RH WIND       PRES   REMARKS
WAUSAU         CLEAR     -2  -7  79 NW6       30.20R WCI -14
MOSINEE        NOT AVBL
MARSHFIELD     CLOUDY    -5 -11  75 W3        30.21R
STEVENS POINT  CLEAR     -3  -8  82 CALM      30.23R
WAUPACA        CLEAR      2  -5  71 W8        30.23R WCI -12
WAUTOMA        NOT AVBL
WISC RAPIDS    CLOUDY    -4 -10  75 NW5       30.26R WCI -15
CAMP DOUGLAS   PTCLDY    -9  -9  97 NW2       30.26R
$$

WIZ011>013-019>022-031-037>040-048>050-111200-
NORTHEAST WISCONSIN

CITY           SKY/WX    TMP DP  RH WIND       PRES   REMARKS
ANTIGO         PTCLDY    -5  -8  86 W8        30.15R WCI -20
SHAWANO        CLEAR      1  -5  75 CALM      30.22R
OCONTO         CLEAR      2  -4  75 NW3       30.21R
STURGEON BAY   CLEAR      1  -6  71 NW7       30.20R WCI -11
GREEN BAY      CLEAR     -2  -7  79 W8        30.22R WCI -17
MANITOWOC      NOT AVBL
APPLETON       NOT AVBL
CLINTONVILLE   CLEAR      1  -6  71 NW6       30.22R WCI -10
OSHKOSH        CLEAR      0  -8  69 W7        30.23R WCI -13
$$

WIZ032>034-041-042-053>061-111200-
SOUTHWEST WISCONSIN

CITY           SKY/WX    TMP DP  RH WIND       PRES   REMARKS
LA CROSSE      PTCLDY    -3  -8  79 N3        30.31R
SPARTA         PTCLDY   -13 -18  80 CALM      30.29R
VIROQUA        PTCLDY     0  -4  81 N3        30.22S
BOSCOBEL       PTCLDY    -4  -9  79 CALM      30.31R
PRAIRIE DU CHI PTCLDY     4  -4  71 CALM      30.30R
PLATTEVILLE    CLEAR      4  -3  73 NW3       30.25R
$$

WIZ056-057-062-063-064-067-068-111200-
SOUTH CENTRAL WISCONSIN

CITY           SKY/WX    TMP DP  RH WIND       PRES   REMARKS
REEDSBURG      PTCLDY    -1  -6  80 NW3       30.25S
BARABOO/DELLS  PTCLDY    -3  -7  82 CALM      30.24R
LONE ROCK      NOT AVBL
MINERAL POINT  CLOUDY     3  -4  72 N7        30.22R WCI  -9
MADISON        CLEAR      2  -5  72 NW5       30.25R WCI  -8
MIDDLETON      CLEAR      2  -4  74 NW5       30.25R WCI  -7
WATERTOWN      CLEAR      3  -3  75 N3        30.22S
MONROE         CLEAR      5   0  78 N6        30.21S WCI  -6
JANESVILLE     CLEAR      9   0  66 N5        30.23S WCI   0
$$

WIZ051-052-058>065-066-070>072-111200-
SOUTHEAST WISCONSIN

CITY           SKY/WX    TMP DP  RH WIND       PRES   REMARKS
MILWAUKEE      CLEAR      6  -4  63 NW9       30.22R WCI  -8
WAUKESHA       CLEAR      0  -6  78 W7        30.22R WCI -13
MILWAUKEE/TIMM CLEAR      3  -6  66 NW6       30.23R WCI  -8
RACINE         CLEAR      5  -5  63 W8        30.24R WCI  -8
BURLINGTON     CLEAR      2  -5  73 NW6       30.22R WCI  -9
KENOSHA        CLEAR      5  -4  66 NW9       30.22R WCI  -9
FOND DU LAC    CLEAR      2  -6  69 W12       30.23R WCI -15
SHEBOYGAN      CLEAR      2  -6  69 NW9       30.21R WCI -13
WEST BEND      CLEAR      3  -6  66 CALM      30.21R
JUNEAU         PTCLDY     0  -5  78 W3        30.23R
$$

LSZ147-162-111200-
LAKE SUPERIOR

STATION/POSITION TIME  TEMP    WIND        PRES    WAVE
                       AIR SEA DIR/SP/G            HT/PER
                 (UTC) (F)     (DEG/KT/KT) (MB)    (FT/S)
DEVILS ISLAND    1000    7     330/ 11/ 13 1026.4R
PORT WING        1000    0     200/  5/ 10 1025.4R
SAXON HARBOR     1040    6                 1024.4R
$$

LMZ867-665-643>646-111200-
LAKE MICHIGAN

STATION/POSITION TIME  TEMP    WIND        PRES    WAVE
                       AIR SEA DIR/SP/G            HT/PER
                 (UTC) (F)     (DEG/KT/KT) (MB)    (FT/S)
CHAMBERS ISLAND  1000    9     300/  8/ 15 1021.3R
ALGOMA LAKESHORE 0941          300/  5/  9   N/A
KEWAUNEE LAKESHO 1000    4                   N/A
SHEBOYGAN LAKESH 1000    5     290/ 13/ 16 1024.4R
PORT WASHINGTON  1000    6     300/  8/ 11 1024.0
MILWAUKEE LAKESH 1010    8     300/  9/ 12   N/A
KENOSHA   LAKESH 1000    7     320/  8/ 11 1023.0R
$$

TC  - TEMPERATURE IN CELSIUS
VSB - VISIBILITY IN STATUTE MILES
WCI - WIND CHILL INDEX
HX  - HEAT INDEX




USA.gov is the U.S. government's official web portal to all federal, state and local government web resources and services.